Home > Weather > Foochow > Past weeks

Flag for China Past Weather in Foochow, Fujian, China — Yesterday and Last 2 Weeks

Now
81 °F

Clear.


Feels Like: 85 °F
Forecast: 72 / 92 °F
Wind: 8 mph from South

Location: Fuzhou Airport

Current Time: May 26, 2016 at 6:50:40 PM

Latest Report: May 26, 2016 at 6:00 PM


Visibility: 4 mi

Pressure: 29.74 "Hg

Humidity: 79%

Dew Point: 73 °F

Location of FoochowLocation

Past Weather in Foochow — Graph

°F

Foochow Temperature Yesterday

Maximum temperature yesterday: 79 °F (at 2:00 PM)
Minimum temperature yesterday: 72 °F (at 12:00 AM)
Average temperature yesterday: 74 °F

High & Low Weather Summary for the Past Weeks

 TemperatureHumidityPressure
High82 °F (May 15, 2:00 PM)100% (May 14, 7:00 PM)30.07 "Hg (May 14, 7:00 PM)
Low63 °F (May 16, 2:00 PM)50% (May 18, 10:00 AM)29.74 "Hg (May 15, 5:00 PM)
Average71 °F84%29.89 "Hg
* Reported May 11 5:00 PM — May 26 5:00 PM, Foochow, Weather by CustomWeather, © 2016

Note: Actual official high and low records may vary slightly from our data, if they occured in-between our weather recording intervals... More about our weather records

Advertising

Foochow Weather History for the Previous 24 Hours

Scroll right to see more
 ConditionsComfort  
Time TempWeatherWind HumidityBarometerVisibility
5:00 PM
Thu, May 26
81 °FClear.10 mph79%29.74 "Hg4 mi
4:00 PM82 °FClear.10 mph74%29.77 "Hg4 mi
3:00 PM81 °FFog.10 mph79%29.77 "Hg3 mi
2:00 PM82 °FFog.10 mph74%29.80 "Hg3 mi
1:00 PM82 °FFog.8 mph74%29.80 "Hg3 mi
12:00 PM82 °FFog.8 mph74%29.80 "Hg3 mi
11:00 AM82 °FHaze.6 mph74%29.83 "Hg3 mi
10:00 AM81 °FHaze.6 mph74%29.83 "Hg3 mi
9:00 AM81 °FClear.3 mph74%29.83 "Hg4 mi
8:00 AM77 °FFog.1 mph79%29.86 "Hg3 mi
7:00 AM75 °FFog.No wind83%29.86 "Hg2 mi
6:00 AM73 °FFog.1 mph94%29.83 "Hg2 mi
5:00 AM72 °FFog.1 mph94%29.83 "Hg2 mi
4:00 AM72 °FFog.1 mph94%29.83 "Hg2 mi
3:00 AM72 °FFog.No wind94%29.83 "Hg2 mi
2:00 AM70 °FFog.1 mph100%29.83 "Hg3 mi
1:00 AM70 °FFog.No wind94%29.83 "Hg3 mi
12:00 AM70 °FFog.No wind94%29.86 "Hg3 mi
11:00 PM
Wed, May 25
72 °FFog.1 mph94%29.86 "Hg3 mi
10:00 PM72 °FFog.No wind94%29.86 "Hg2 mi
9:00 PM72 °FFog.3 mph94%29.86 "Hg3 mi
8:00 PM73 °FClear.3 mph89%29.83 "Hg4 mi
7:00 PM73 °FFog.6 mph83%29.80 "Hg3 mi
6:00 PM75 °FFog.6 mph78%29.80 "Hg3 mi
Weather by CustomWeather, © 2016

See weather overviewHow to use our weather pages